[[{"header":{"parameterUnit":"m.s-1","parameterCategory":1,"la1":30.2991,"la2":30.254,"lo1":-89.0895,"lo2":-89.0444,"dy":0.0017,"dx":0.0017,"nx":28,"ny":28,"refTime":"2023-11-02T09:00:00:Z","depth":0,"parameterNumber":2,"parameterNumberName":"U-component_of_WINDS"},"data":[0,0,0,0,0,0,0,0,0,0,0,0,0,0,0,0,0,0,0,0,0,0,0,0,0,0,0,0,0,0,0,0,0,0,0,0,0,0,0,0,0,0,0,0,0,0,0,0,0,0,0,0,0,0,0,0,0,0,-3.2687,-3.2687,0,-3.2748,-3.2748,-3.2749,-3.2662,-3.2659,-3.2656,-3.2653,-3.2716,-3.272,-3.2725,0,0,0,0,0,0,0,0,0,0,0,0,0,-3.2495,-3.2499,-3.2687,-3.2688,-3.2688,-3.2748,-3.2748,-3.2749,-3.2663,-3.2659,-3.2655,-3.2652,-3.2714,-3.272,-3.2725,0,0,0,0,0,0,0,0,0,0,0,0,0,-3.2569,-3.25,-3.2687,-3.2652,-3.265,-3.2747,-3.2748,-3.2749,-3.2663,-3.2659,-3.2654,-3.265,-3.2713,-3.2719,-3.2726,-3.2861,0,0,-3.2747,-3.275,0,0,0,0,0,0,0,0,-3.2565,-3.2576,-3.2656,-3.2655,-3.2652,-3.2692,-3.2704,-3.2787,-3.2665,-3.2658,-3.2653,-3.2648,-3.2712,-3.2719,-3.274,-3.2864,-3.2866,-3.2748,-3.2752,-3.2755,-3.2756,0,0,0,0,0,0,0,-3.256,-3.2573,-3.2711,-3.2658,-3.2655,-3.2633,-3.2639,-3.2719,-3.271,-3.2658,-3.2652,-3.2661,-3.271,-3.2734,-3.2741,-3.2867,-3.2747,-3.2753,-3.2758,-3.276,-3.3102,-3.3107,0,0,0,0,0,0,-3.2559,-3.257,-3.2709,-3.2713,-3.2596,-3.2641,-3.2647,-3.2684,-3.2709,-3.2708,-3.2664,-3.2656,-3.2724,-3.2733,-3.2743,-3.2901,-3.2755,-3.2761,-3.2765,-3.3097,-3.3103,-3.3109,0,0,0,0,0,0,-3.2555,-3.2572,-3.2706,-3.2639,-3.2655,-3.2649,-3.2692,-3.2688,-3.2712,-3.2714,-3.2712,-3.2691,-3.2721,-3.2733,-3.2832,-3.2902,-3.2764,-3.277,-3.3092,-3.3099,-3.3106,-3.3219,0,0,0,0,0,0,-3.255,-3.2572,-3.2623,-3.2641,-3.2659,-3.2795,-3.2696,-3.2692,-3.2724,-3.2713,-3.2738,-3.2737,-3.2718,-3.2822,-3.2838,-3.2909,-3.2776,-3.3085,-3.3095,-3.3104,-3.3209,-3.323,-3.3247,0,0,0,0,0,-3.2544,-3.2653,-3.2626,-3.2643,-3.2723,-3.2799,-3.2809,-3.2785,-3.273,-3.2781,-3.2782,-3.2736,-3.2892,-3.2833,-3.285,-3.2924,-3.3081,-3.3092,-3.3103,-3.3201,-3.3226,-3.3247,0,0,0,0,0,0,-3.2644,-3.2655,-3.2625,-3.2743,-3.2771,-3.2784,-3.2848,-3.2812,-3.2856,-3.2845,-3.2813,-3.282,-3.2925,-3.2934,-3.2868,-3.3055,-3.2977,-3.2992,-3.3045,-3.3069,-3.3087,-3.3083,-3.2781,0,0,0,0,0,-3.2679,-3.274,-3.2746,-3.285,-3.2866,-3.2855,-3.2887,-3.2866,-3.2893,-3.2904,-3.2913,-3.2941,-3.2996,-3.3033,-3.3083,-3.321,-3.3214,-3.3269,-3.3288,-3.3304,-3.3318,-3.3384,-3.3409,-3.3146,-3.3146,-3.3145,0,0,-3.2754,-3.2767,-3.2808,-3.2871,-3.2889,-3.2953,-3.2865,-3.2936,-3.2983,-3.2915,-3.3008,-3.3016,-3.3045,-3.3158,-3.3208,-3.3169,-3.3391,-3.3318,-3.3331,-3.3336,-3.3398,-3.3423,-3.3446,-3.3153,-3.3152,-3.3151,0,0,-3.2922,-3.2939,-3.3027,-3.3047,-3.3076,-3.3068,-3.3089,-3.3108,-3.311,-3.3202,-3.3152,-3.3207,-3.3303,-3.3325,-3.335,-3.3525,-3.3484,-3.3542,-3.3642,-3.3707,-3.3728,-3.3746,-3.3808,-3.3831,-3.3556,-3.3556,-3.3556,0,-3.3012,-3.3105,-3.3077,-3.3151,-3.318,-3.312,-3.3208,-3.323,-3.3274,-3.3295,-3.3251,-3.3369,-3.3384,-3.3501,-3.3544,-3.3565,-3.3588,-3.354,-3.3727,-3.3745,-3.3762,-3.382,-3.3844,-3.3563,-3.3562,-3.3561,-3.3561,0,-3.3213,-3.3279,-3.3346,-3.339,-3.3426,-3.3507,-3.349,-3.353,-3.3506,-3.3502,-3.3597,-3.3613,-3.3666,-3.3692,-3.3669,-3.3805,-3.378,-3.3732,-3.3653,-3.3794,-3.3849,-3.3871,-3.3573,-3.357,-3.3568,-3.3566,0,0,-3.3448,-3.3473,-3.3498,-3.3517,-3.3544,-3.3594,-3.3672,-3.3722,-3.3757,-3.3789,-3.3854,-3.3935,-3.389,-3.3918,-3.3897,-3.3954,-3.4091,-3.3899,-3.3899,-3.3934,-3.4241,-3.4277,-3.4304,-3.4064,-3.4068,-3.4072,-3.4239,0,-3.3615,-3.375,-3.3725,-3.3856,-3.3916,-3.3859,-3.3927,-3.3951,-3.3949,-3.3999,-3.3997,-3.4055,-3.3992,-3.4008,-3.4062,-3.4063,-3.4152,-3.405,-3.4123,-3.4126,-3.4118,-3.4333,-3.4371,-3.4528,-3.426,-3.4264,-3.4266,0,-3.3829,-3.3869,-3.4005,-3.4021,-3.4045,-3.4107,-3.415,-3.4199,-3.4225,-3.4219,-3.4249,-3.4217,-3.4294,-3.4214,-3.4319,-3.425,-3.4278,-3.4283,-3.4288,-3.4295,-3.4205,-3.4344,-3.4578,-3.4602,-3.43,-3.4297,-3.4295,0,-3.3986,-3.4073,-3.4166,-3.4183,-3.4205,-3.4249,-3.426,-3.4281,-3.4312,-3.435,-3.437,-3.4418,-3.4443,-3.448,-3.4462,-3.4405,-3.457,-3.4488,-3.4568,-3.4569,-3.4606,-3.4604,-3.4847,-3.4624,-3.4624,-3.4623,-3.4623,0,-3.4176,-3.4262,-3.4236,-3.4293,-3.4387,-3.4358,-3.4452,-3.4456,-3.4474,-3.4531,-3.4485,-3.4539,-3.4511,-3.4563,-3.4548,-3.4638,-3.465,-3.4647,-3.4643,-3.4652,-3.4652,-3.467,-3.4659,-3.4629,-3.4628,-3.4627,-3.4626,0,-3.4368,-3.4354,-3.4451,-3.4463,-3.4467,-3.4536,-3.4546,-3.4599,-3.4593,-3.4665,-3.468,-3.4672,-3.473,-3.4715,-3.4779,-3.4769,-3.4881,-3.4863,-3.4873,-3.4868,-3.4949,-3.4941,-3.5212,-3.5246,-3.5001,-3.5004,-3.5006,0,-3.449,-3.4554,-3.4572,-3.4607,-3.4621,-3.4677,-3.4708,-3.4681,-3.4716,-3.4749,-3.4798,-3.4852,-3.4894,-3.499,-3.499,-3.5038,-3.502,-3.5112,-3.5027,-3.5034,-3.5021,-3.5018,-3.5024,-3.5129,-3.5132,-3.5134,-3.5136,0,-3.4709,-3.4698,-3.4745,-3.479,-3.4829,-3.4863,-3.4892,-3.4923,-3.4898,-3.494,-3.4998,-3.5031,-3.5095,-3.515,-3.5194,-3.5205,-3.5167,-3.5162,-3.5183,-3.5193,-3.5196,-3.5196,-3.4919,-3.5156,-3.5154,-3.5153,-3.5152,-3.5151,-3.4869,-3.4923,-3.4944,-3.4997,-3.5017,-3.5045,-3.5095,-3.5095,-3.5143,-3.5193,-3.5174,-3.5242,-3.5264,-3.5319,-3.5335,-3.5388,-3.5353,-3.5383,-3.5391,-3.5399,-3.5409,-3.5188,-3.5396,-3.5395,-3.5394,-3.5394,-3.5393,0,-3.5085,-3.5095,-3.5144,-3.5187,-3.5229,-3.5188,-3.5218,-3.5256,-3.5316,-3.534,-3.5382,-3.5449,-3.5501,-3.5504,-3.5552,-3.5594,-3.5577,-3.5607,-3.5604,-3.5607,-3.5437,-3.5414,-3.562,-3.562,-3.562,-3.562,-3.5619,-3.5619,-3.5202,-3.5291,-3.5283,-3.5381,-3.539,-3.5455,-3.5476,-3.5502,-3.552,-3.5597,-3.564,-3.5641,-3.5656,-3.5705,-3.5751,-3.575,-3.577,-3.5807,-3.58,-3.5642,-3.5619,-3.5598,-3.5576,-3.5812,-3.5812,-3.5966,-3.5967,-3.5968]},{"header":{"parameterUnit":"m.s-1","parameterCategory":1,"la1":30.2991,"la2":30.254,"lo1":-89.0895,"lo2":-89.0444,"dy":0.0017,"dx":0.0017,"nx":28,"ny":28,"refTime":"2023-11-02T09:00:00:Z","depth":0,"parameterNumber":3,"parameterNumberName":"V-component_of_WINDS"},"data":[0,0,0,0,0,0,0,0,0,0,0,0,0,0,0,0,0,0,0,0,0,0,0,0,0,0,0,0,0,0,0,0,0,0,0,0,0,0,0,0,0,0,0,0,0,0,0,0,0,0,0,0,0,0,0,0,0,0,-2.4256,-2.4257,0,-2.4364,-2.4365,-2.4367,-2.4384,-2.4383,-2.4382,-2.4381,-2.4489,-2.4493,-2.4496,0,0,0,0,0,0,0,0,0,0,0,0,0,-2.4059,-2.4062,-2.4255,-2.4257,-2.4258,-2.4364,-2.4365,-2.4367,-2.4384,-2.4383,-2.4382,-2.4381,-2.4488,-2.4492,-2.4497,0,0,0,0,0,0,0,0,0,0,0,0,0,-2.4153,-2.4063,-2.4255,-2.428,-2.4283,-2.4364,-2.4365,-2.4367,-2.4384,-2.4383,-2.4381,-2.438,-2.4486,-2.4492,-2.4497,-2.4561,0,0,-2.4515,-2.4517,0,0,0,0,0,0,0,0,-2.4148,-2.416,-2.4275,-2.4278,-2.4282,-2.4359,-2.4336,-2.4432,-2.4385,-2.4346,-2.4381,-2.4379,-2.4447,-2.4456,-2.4479,-2.4566,-2.457,-2.4515,-2.4519,-2.4521,-2.4523,0,0,0,0,0,0,0,-2.4141,-2.4156,-2.4298,-2.4276,-2.4281,-2.4284,-2.4296,-2.4354,-2.4403,-2.4349,-2.435,-2.4363,-2.4448,-2.4473,-2.4482,-2.4572,-2.4515,-2.452,-2.4523,-2.4526,-2.4714,-2.4716,0,0,0,0,0,0,-2.4131,-2.415,-2.4295,-2.4302,-2.421,-2.4288,-2.4302,-2.4336,-2.4402,-2.4411,-2.4364,-2.4364,-2.4465,-2.4475,-2.4485,-2.4563,-2.4521,-2.4526,-2.4529,-2.4713,-2.4715,-2.4716,0,0,0,0,0,0,-2.4127,-2.4144,-2.4291,-2.4226,-2.4245,-2.4293,-2.4331,-2.4339,-2.4364,-2.4414,-2.4422,-2.4381,-2.4464,-2.4478,-2.4542,-2.4567,-2.4529,-2.4534,-2.4711,-2.4713,-2.4715,-2.4718,0,0,0,0,0,0,-2.4121,-2.4142,-2.4168,-2.4227,-2.4249,-2.4346,-2.4333,-2.4342,-2.4374,-2.4374,-2.4432,-2.444,-2.4464,-2.4533,-2.4547,-2.4574,-2.4538,-2.4709,-2.4712,-2.4715,-2.4716,-2.4721,-2.4724,0,0,0,0,0,-2.4114,-2.4164,-2.4169,-2.4186,-2.4282,-2.4348,-2.436,-2.4387,-2.4376,-2.4401,-2.4433,-2.4438,-2.4562,-2.454,-2.4556,-2.4584,-2.4707,-2.4711,-2.4714,-2.4714,-2.472,-2.4724,0,0,0,0,0,0,-2.4105,-2.4172,-2.4178,-2.4249,-2.4293,-2.435,-2.4383,-2.4392,-2.4439,-2.4437,-2.4467,-2.448,-2.4542,-2.457,-2.4544,-2.4648,-2.4633,-2.464,-2.4628,-2.4633,-2.4637,-2.4629,-2.4543,0,0,0,0,0,-2.4112,-2.4161,-2.4216,-2.4273,-2.4295,-2.4335,-2.4365,-2.4382,-2.4428,-2.4446,-2.4483,-2.4526,-2.4574,-2.4605,-2.4653,-2.472,-2.4732,-2.4748,-2.4752,-2.4755,-2.476,-2.4797,-2.4804,-2.4728,-2.4728,-2.4728,0,0,-2.4125,-2.4168,-2.4197,-2.4272,-2.4308,-2.4356,-2.435,-2.4402,-2.4438,-2.4453,-2.4516,-2.4544,-2.4595,-2.466,-2.4691,-2.4685,-2.4784,-2.476,-2.4762,-2.4766,-2.4801,-2.4808,-2.4815,-2.4731,-2.473,-2.473,0,0,-2.4175,-2.4213,-2.4264,-2.43,-2.4354,-2.438,-2.4392,-2.4449,-2.4469,-2.4532,-2.4544,-2.4587,-2.467,-2.4705,-2.4733,-2.4795,-2.4801,-2.4809,-2.483,-2.4865,-2.4871,-2.4877,-2.4897,-2.4904,-2.4815,-2.4815,-2.4815,0,-2.4184,-2.4259,-2.4288,-2.434,-2.4372,-2.4389,-2.444,-2.4473,-2.4539,-2.456,-2.4553,-2.4657,-2.4692,-2.4765,-2.478,-2.4803,-2.4817,-2.4803,-2.4868,-2.4874,-2.4879,-2.4899,-2.4907,-2.4815,-2.4815,-2.4815,-2.4815,0,-2.4268,-2.4319,-2.4354,-2.4419,-2.4455,-2.4506,-2.4541,-2.4574,-2.4587,-2.4614,-2.4678,-2.472,-2.4776,-2.4795,-2.4809,-2.487,-2.4864,-2.4862,-2.4848,-2.4887,-2.4906,-2.4914,-2.4816,-2.4816,-2.4816,-2.4816,0,0,-2.4315,-2.4395,-2.4407,-2.4436,-2.4497,-2.4536,-2.4587,-2.4643,-2.4669,-2.4714,-2.4757,-2.4826,-2.4825,-2.4857,-2.4875,-2.4905,-2.495,-2.4899,-2.4901,-2.4906,-2.5018,-2.5018,-2.5027,-2.4954,-2.4956,-2.4957,-2.5013,0,-2.4371,-2.4463,-2.449,-2.4568,-2.4615,-2.4631,-2.4675,-2.4716,-2.4742,-2.4785,-2.4813,-2.4861,-2.4856,-2.4875,-2.4907,-2.4938,-2.4972,-2.4934,-2.4992,-2.4994,-2.4979,-2.5037,-2.5038,-2.5089,-2.5021,-2.5023,-2.5024,0,-2.4448,-2.4495,-2.4577,-2.4631,-2.4652,-2.4691,-2.4743,-2.4784,-2.4831,-2.4847,-2.4883,-2.4898,-2.495,-2.4933,-2.5004,-2.4978,-2.5003,-2.5022,-2.5024,-2.503,-2.5011,-2.5043,-2.5107,-2.5114,-2.5036,-2.5035,-2.5034,0,-2.4473,-2.4557,-2.4616,-2.4641,-2.4705,-2.4732,-2.476,-2.4805,-2.4836,-2.4881,-2.4901,-2.4952,-2.4979,-2.5017,-2.5044,-2.503,-2.5113,-2.5099,-2.5127,-2.5126,-2.5143,-2.5141,-2.521,-2.5161,-2.5161,-2.5161,-2.5161,0,-2.4532,-2.4581,-2.4628,-2.4665,-2.472,-2.475,-2.4803,-2.4831,-2.4871,-2.4912,-2.4929,-2.4967,-2.5001,-2.5043,-2.5065,-2.512,-2.5132,-2.5146,-2.5151,-2.5144,-2.5142,-2.5161,-2.5157,-2.5163,-2.5162,-2.5162,-2.5162,0,-2.4568,-2.4602,-2.4668,-2.4723,-2.4738,-2.4776,-2.4823,-2.4858,-2.4885,-2.4937,-2.4951,-2.4992,-2.5042,-2.5074,-2.5137,-2.5152,-2.5212,-2.5216,-2.5196,-2.5198,-2.5224,-2.5221,-2.5306,-2.5318,-2.5262,-2.5263,-2.5263,0,-2.4603,-2.4641,-2.4701,-2.473,-2.4759,-2.4805,-2.4837,-2.4868,-2.49,-2.4955,-2.4983,-2.5035,-2.5078,-2.5157,-2.5192,-2.5241,-2.5246,-2.5272,-2.5253,-2.5244,-2.5245,-2.5242,-2.5245,-2.5275,-2.5275,-2.5276,-2.5276,0,-2.4661,-2.4676,-2.4722,-2.4773,-2.4811,-2.4853,-2.4894,-2.4917,-2.4954,-2.4989,-2.5041,-2.5075,-2.514,-2.519,-2.5242,-2.5269,-2.5278,-2.5282,-2.5291,-2.5284,-2.527,-2.5277,-2.5204,-2.528,-2.5279,-2.5279,-2.5279,-2.5279,-2.4697,-2.4731,-2.4778,-2.4829,-2.4863,-2.4901,-2.4937,-2.4968,-2.5012,-2.5068,-2.5083,-2.5137,-2.5181,-2.5252,-2.528,-2.5322,-2.5318,-2.5331,-2.5334,-2.5337,-2.5336,-2.5264,-2.5331,-2.5331,-2.5331,-2.5331,-2.5331,0,-2.4755,-2.4786,-2.4832,-2.4889,-2.4928,-2.4935,-2.4981,-2.5013,-2.506,-2.5101,-2.5143,-2.5202,-2.5251,-2.529,-2.5339,-2.5365,-2.5371,-2.5377,-2.5375,-2.5381,-2.5338,-2.5325,-2.5372,-2.5372,-2.5372,-2.5372,-2.5372,-2.5372,-2.4789,-2.4847,-2.4867,-2.4942,-2.4972,-2.5026,-2.5051,-2.5086,-2.5119,-2.5184,-2.5225,-2.525,-2.529,-2.5342,-2.5387,-2.5397,-2.5414,-2.5419,-2.543,-2.5389,-2.5384,-2.538,-2.5368,-2.5423,-2.5423,-2.547,-2.547,-2.547]}]]